Flag for Brazil Weather past 2 weeks in Tabatinga, Amazonas, Brazil

Now
86 °F

Scattered clouds.


Feels Like: 99 °F
Forecast: 73 / 85 °F
Wind: No wind

Location: Leticia / Vasquez Cobo


UV Index: 3 (Moderate)

Visibility: N/A


Pressure: 29.77 "Hg

Humidity: 79%

Dew point: 79 °F

Location of TabatingaLocation

Historic Weather in Tabatinga

°F

Tabatinga temperature yesterday

Maximum temperature yesterday: 88 °F (at 11:00 AM)
Minimum temperature yesterday: 73 °F (at 5:00 AM)
Average temperature yesterday: 80 °F

Past Weeks' High & Low Weather Summary

 TemperatureHumidityPressure
High90 °F (Apr 11, 2:00 PM)100% (Apr 3, 9:00 PM)29.99 "Hg (Apr 3, 9:00 PM)
Low73 °F (Apr 7, 6:00 AM)67% (Apr 12, 1:00 PM)29.74 "Hg (Apr 3, 7:00 PM)
Average80 °F91%29.88 "Hg
* Reported Apr 3 2:00 PM — Apr 18 2:00 PM, Tabatinga, Weather by CustomWeather, © 2014

Note: Actual official high and low records may vary slightly from our data, if they occured in-between our weather recording intervals... More about our weather records

Advertising

Historic Weather Conditions — Data for Previous 24 hours

 ConditionsComfort  
Time TempWeatherWind HumidityBarometerVisibility
2:00 PM
Apr 18
84 °FPartly sunny.No wind84%29.82 "HgN/A
1:00 PM86 °FScattered showers. Broken clouds.No wind84%29.85 "Hg5 mi
12:00 PM88 °FBroken clouds.3 mph75%29.89 "HgN/A
11:00 AM86 °FBroken clouds.2 mph79%29.93 "HgN/A
10:00 AM84 °FScattered clouds.No wind84%29.94 "HgN/A
9:00 AM82 °FPartly sunny.No wind84%29.95 "HgN/A
8:00 AM79 °FPartly sunny.No wind94%29.93 "HgN/A
7:00 AM75 °FPartly sunny.No wind100%29.90 "HgN/A
6:00 AM75 °FPartly sunny.No wind94%29.88 "HgN/A
4:00 AM75 °FPassing clouds.No wind100%29.87 "HgN/A
2:00 AM75 °FPassing clouds.No wind100%29.87 "HgN/A
12:00 AM77 °FPassing clouds.No wind94%29.88 "HgN/A
11:00 PM
Apr 17
77 °FPassing clouds.No wind100%29.90 "HgN/A
10:00 PM77 °FPassing clouds.No wind100%29.90 "HgN/A
9:00 PM79 °FPassing clouds.No wind100%29.88 "HgN/A
8:00 PM81 °FClear.No wind94%29.83 "Hg10 mi
7:00 PM81 °FPassing clouds.No wind94%29.81 "HgN/A
6:00 PM82 °FPassing clouds.No wind89%29.79 "HgN/A
5:00 PM84 °FPartly sunny.No wind84%29.78 "HgN/A
4:00 PM86 °FScattered clouds.3 mph79%29.78 "HgN/A
3:00 PM81 °FScattered clouds.2 mph94%29.80 "HgN/A
Weather by CustomWeather, © 2014

See weather overview